CZ-4C DEB

Satellite information

Favourite Embed

Satellite Type and Status

DEBRISIN ORBIT

Key statistics

Satellite CZ-4C DEB at a glance.

Uptime

2805

Days in orbit

Revolutions

≈ 13.4

Per day

Orbit

LEO

Low Earth Orbit

Inclination

63.5

Latest

Satellite identification and parameters

Extended collection of information and parameters for CZ-4C DEB.

Object identification

Identified? True

Debris? True

Object name: CZ-4C DEB

International designator: 2018-034K

Object number (NORAD): 44618

Object ID (CCSDS): 44618

Country: PEOPLES REPUBLIC OF CHINA (PRC)

Current information (Y/N): Y

RCS size: SMALL

Orbital parameters

Period: 107.3 minutes

Inclination: 63.4657 deg

SMA: 7479.835 km

Apoapsis: 1282.202 km

Periapsis: 921.199 km

RAAN: 268.1495 deg

Eccentricy: 0.02413178

Argument of periapsis: 346.6844 deg

Mean anomaly: 12.7883 deg

Mean motion: 13.420377 rev/day

Mean motion (dot): -0.00000048 rev/day2

B* drag term: 0.000061358903 1/REarth

Two-line elements (TLE)

Creation date: Dec. 14, 2025, 3:07 a.m.

Reference frame: TEME

Reference center: EARTH

Epoch: Dec. 13, 2025, 9:12 a.m. UTC

TLE line 0: 0 CZ-4C DEB

TLE line 1: 1 44618U 18034K 25347.38383365 -.00000048 00000-0 61359-4 0 9990

TLE line 2: 2 44618 63.4657 268.1495 0241318 346.6844 12.7883 13.42037700351910

Live tracking on map

Real-time ground track for satellite CZ-4C DEB.

In-orbit conjunctions

A list of the most updated potential collisions computed for object CZ-4C DEB.

Target Orbit TCA Probability of collision Miss distance Type
OPS 4682 DEB SSO 2025-10-26 06:39:27 0.0001752789 56.0 (m) DEBRIS
FENGYUN 1C DEB SSO 2025-10-06 17:28:34 0.0001177627 99.0 (m) DEBRIS

Associated space launch

CZ-4C DEB was lifted into orbit during the mission ‘Long March 4C | 3 x Yaogan-31-01’, on board a Long March 4C space rocket.

The launch took place on April 10, 2018, 4:25 a.m. from Launch Area 94 (SLS-2 / 603).

For more information about the launch, click the button.

Launch to space Long March 4C | 3 x Yaogan-31-01
Long March 4C | 3 x Yaogan-31-01

Agency: N/A

Status: Launch Successful

Launch date: April 10, 2018, 4:25 a.m. UTC

Rocket: Long March 4C

Launch pad: Launch Area 94 (SLS-2 / 603)

Location: Jiuquan Satellite Launch Center, People's Republic of China

...

Latest news about this satellite

There are no fresh news available about this satellite. Check back as we update our databases every day.


Newsletter sign-up

Weekly statistics, charts and insights to help you stay on top of the space industry.